Location: Case la Selva
(44.5500°N, 10.4333°E)
Time: 10:43:37
(UTC+00:00)

Daily predictions for brighter satellites

Satellite Brightness Start Highest point End
(mag) Time Altitude Azimuth Time Altitude Azimuth Time Altitude Azimuth
SL-24 R/B 4.4 16:44:18 10° SSE 16:48:47 89° ENE 16:53:48 10° NNW
Cosmos 1626 Rocket 3.8 16:45:12 10° SSE 16:49:27 50° E 16:53:46 10° NNE
Cosmos 1092 Rocket 4.3 16:44:27 10° SSE 16:50:13 44° E 16:55:59 10° NNE
Cosmos 2263 Rocket 4.5 16:48:12 10° W 16:51:50 17° NW 16:55:28 10° N
Cosmos 1898 Rocket 3.7 16:47:36 10° S 16:52:42 56° ESE 16:57:49 10° NNE
Cosmos 923 Rocket 4.2 16:49:07 10° NNW 16:54:29 85° WSW 16:59:47 10° SSE
CZ-4C R/B 3.9 16:53:34 10° N 16:56:38 46° WNW 16:59:44 10° SSW
CZ-2C R/B 4.5 16:56:22 10° ENE 16:57:49 11° E 16:59:17 10° E
Cosmos 1680 Rocket 3.5 16:53:31 10° NNW 16:58:47 80° ENE 17:03:59 10° SSE
Nadezhda 4 Rocket 4.0 16:52:41 10° S 16:58:55 83° E 17:05:07 10° N
Meteor 2-10 Rocket 4.4 16:56:15 10° NNW 17:01:29 56° W 17:06:29 10° S
Cosmos 1328 4.3 16:58:00 10° SSE 17:01:44 40° E 17:05:27 10° NNE
CZ-2D R/B 3.7 17:01:17 10° SE 17:04:51 39° ENE 17:08:27 10° N
CZ-4B R/B 1.7 17:02:07 10° NNE 17:05:15 40° E 17:08:17 10° S
MOS 1 Rocket 3.7 17:03:00 10° NNE 17:06:58 36° E 17:11:00 10° SSE
Cosmos-2242 3.8 17:06:30 10° NNE 17:10:14 28° ENE 17:13:59 10° SE
NOSS 3-1 (C) 4.2 17:05:24 10° NW 17:12:59 87° NE 17:21:46 10° SE
COSMO-SKYMED 1 2.7 17:10:07 10° NNE 17:14:24 54° E 17:18:38 10° S
Cosmos 1937 Rocket 3.6 17:10:06 10° S 17:15:21 65° ESE 17:20:38 10° NNE
BREEZE-M DEB (TANK) 2.9 17:13:47 10° NW 17:15:48 28° N 17:17:14 16° ENE
Cosmos 1758 Rocket 4.1 17:12:03 10° SSE 17:16:11 39° E 17:20:22 10° NNE
Aureole 3 3.5 17:14:58 10° NNW 17:17:58 52° W 17:20:52 10° S
USA 290 2.8 17:19:19 10° N 17:22:17 35° ENE 17:25:15 10° SE
NOSS 2-1 (C) 3.9 17:20:30 10° WSW 17:23:41 42° NW 17:27:01 10° NNE
CZ-4 R/B 4.4 17:20:45 10° SSE 17:24:49 59° ENE 17:28:55 10° N
Cosmos 1833 Rocket 2.7 17:20:45 10° NNW 17:26:17 56° ENE 17:31:48 10° SE
H-2A R/B 2.4 17:22:35 10° SE 17:27:17 40° ENE 17:32:07 10° N
Cosmos 1939 Rocket 3.3 17:25:30 10° S 17:29:33 68° WSW 17:33:36 10° NNW
NOSS 2-1 (D) 4.2 17:26:32 10° WSW 17:29:39 36° NW 17:32:55 10° NNE
Helios 1A Rocket 3.7 17:26:18 10° SE 17:29:54 30° ENE 17:33:32 10° N
H-2A R/B 3.4 17:27:23 10° N 17:31:29 40° WNW 17:35:28 10° SW
Cosmos 2344 4.4 17:23:36 10° NW 17:32:56 72° NE 17:46:00 10° SE
Cosmos 1602 Rocket 3.7 17:28:37 10° SSW 17:32:58 76° W 17:37:23 10° N
Cosmos 2026 Rocket 3.9 17:28:01 10° S 17:34:06 74° E 17:40:22 10° NNE
USA 229 DEB 3.9 17:27:03 10° NW 17:34:25 87° NE 17:42:10 10° SE
USA 229 3.9 17:27:10 10° NW 17:34:32 86° NE 17:42:17 10° SE
Feng Yun 1-1 Rocket 4.3 17:29:20 10° SSE 17:34:48 86° WSW 17:40:28 10° NNW
CZ-3B R/B 2.2 17:32:36 10° NW 17:35:22 67° NE 17:44:02 10° ESE
SJ 16-02 3.7 17:33:06 10° WSW 17:36:34 22° WNW 17:40:02 10° N
YAOGAN 1 2.7 17:34:42 10° SE 17:38:52 49° ENE 17:43:02 10° N
Cosmos 1689 Rocket 2.4 17:41:34 33° ENE 17:42:13 39° E 17:44:54 10° S
Cosmos 1553 Rocket 4.1 17:36:48 10° N 17:43:05 55° ENE 17:49:14 10° SSE
Aureole 3 Rocket 2.6 17:40:24 10° N 17:43:42 89° E 17:47:54 10° S
COSMOS 2406 3.2 17:39:52 10° NNW 17:45:42 88° ENE 17:51:27 10° SSE
Cosmos 2082 Rocket 2.5 17:40:35 10° NNW 17:46:05 45° ENE 17:51:31 10° SE
HJ-1C 4.2 17:47:04 30° NE 17:47:04 30° NE 17:49:35 10° N
Cosmos 1825 Rocket 3.5 17:43:41 10° S 17:48:00 63° E 17:52:23 10° NNE
IRS-1C Rocket 4.1 17:43:04 10° SSE 17:48:19 88° WSW 17:53:38 10° NNW
Meteor 1-27 4.2 17:44:23 10° N 17:49:54 56° ENE 17:55:21 10° SSE
NOSS 3-1 (A) 4.1 17:42:31 10° NW 17:50:08 89° SW 17:58:56 10° SE
X-37B 0.8 17:47:14 10° W 17:50:24 66° SSW 17:51:36 34° SE
deb Kosmos-1763 4.5 17:49:23 10° N 17:52:45 37° ENE 17:52:52 37° ENE
Cosmos 1812 Rocket 4.4 17:48:42 10° NNW 17:52:58 52° W 17:57:10 10° S
ISS -2.2 17:50:24 10° NW 17:53:14 24° N 17:53:50 23° NNE
Okean O Rocket 4.2 17:50:54 10° SSW 17:54:29 24° W 17:58:05 10° NW
NOAA 15 4.5 17:50:37 10° SSE 17:55:51 77° ENE 18:01:10 10° N
CZ-4 R/B 1.3 17:54:30 10° SSE 17:58:32 86° WSW 18:02:31 10° NNW
Iridium 4 Rocket 3.7 17:55:54 10° N 18:01:15 72° W 18:06:05 10° S
ERS-2 2.2 17:58:50 10° N 18:02:29 77° WNW 18:06:06 10° SSW
CSL-04 Rocket 3.7 17:57:33 10° SSE 18:02:51 55° ENE 18:08:15 10° N
Okean-O 2.6 18:01:34 10° SSE 18:06:00 84° WSW 18:10:28 10° NNW
USA 234 4.4 18:05:52 20° NE 18:09:01 30° N 18:14:32 10° NW
CZ-4C R/B 4.5 18:05:46 10° NNW 18:09:28 15° N 18:11:46 13° NNE
S3M 3.9 18:03:31 10° N 18:09:34 60° ENE 18:15:37 10° SSE
Cosmos 1346 Rocket 3.0 18:07:11 10° SSW 18:11:05 68° WNW 18:15:02 10° N
Cosmos 1655 Rocket 4.0 18:05:14 10° SSE 18:11:16 56° E 18:17:19 10° NNE
Cosmos 2278 Rocket 2.4 18:06:08 10° SSW 18:11:47 71° WNW 18:17:11 12° NNE
Cosmos 1953 Rocket 3.4 18:10:09 10° S 18:14:29 79° E 18:17:58 16° NNE
CZ-2C R/B 4.2 18:09:20 10° S 18:14:36 48° W 18:20:09 10° NNW
SWARM A 4.4 18:13:54 10° S 18:17:12 71° W 18:18:52 27° N
Cosmos 2292 Rocket 3.4 18:14:21 10° S 18:19:19 75° E 18:20:41 41° NNE
Cosmos 1892 4.2 18:15:50 10° S 18:17:22 23° SSE 18:17:22 23° SSE
SAR-Lupe-4 4.2 18:17:50 17° N 18:20:25 56° WNW 18:23:54 10° SSW
Cosmos 44 Rocket 3.2 18:17:11 10° SSW 18:22:04 71° ESE 18:23:19 49° NE
ARGOS 3.1 18:22:40 10° SSE 18:28:02 85° WSW 18:33:28 10° NNW
Meteor 2-2 Rocket 4.3 18:25:12 10° N 18:31:07 60° ENE 18:34:20 28° SSE
Cosmos 1869 4.1 18:27:35 10° N 18:30:11 40° N 18:30:11 40° N
CZ-2C R/B 2.6 18:33:45 12° NNE 18:38:57 79° ESE 18:44:35 10° S
Cosmos 468 4.4 18:33:42 10° NNW 18:38:59 88° WSW 18:41:13 36° SSE
Cosmos 494 Rocket 3.9 18:37:49 10° NNW 18:42:29 65° NNE 18:42:29 65° NNE
Cosmos 2150 Rocket 3.9 18:39:23 10° SSW 18:44:31 81° WNW 18:45:58 49° N
Cosmos 1048 Rocket 4.0 18:42:49 10° NNW 18:47:57 75° WSW 18:49:37 44° S
Cosmos 2297 3.8 18:46:42 10° SSW 18:51:23 57° SSE 18:51:23 57° SSE
SL-08 RB Rocket 4.3 18:59:18 51° SW 18:59:51 54° W 19:04:16 10° NNW
H-2A R/B 4.0 19:02:35 10° SSW 19:06:50 27° W 19:11:12 10° NW
Cosmos 1125 Rocket 3.8 19:04:02 10° SSW 19:08:41 63° WSW 19:08:41 63° WSW
Cosmos 2266 Rocket 4.3 19:07:23 10° SSW 19:13:33 62° W 19:19:39 10° N
Cosmos 1943 Rocket 4.2 19:22:10 10° SSW 19:23:18 16° SSW 19:23:18 16° SSW
Cosmos 2082 Rocket 3.9 19:25:05 10° NW 19:29:57 29° WSW 19:33:42 15° SSW
ATLAS 2AS CENTAUR R/B 4.4 19:44:18 10° NNW 19:48:21 23° N 19:48:21 23° N
USA 234 4.4 19:53:12 35° NNW 19:53:12 35° NNW 19:57:15 10° NW
CZ-4C R/B 4.4 19:54:14 10° NNW 19:56:58 22° N 19:56:58 22° N
